CDT,Max TemperatureF,Mean TemperatureF,Min TemperatureF,Max Dew PointF,MeanDew PointF,Min DewpointF,Max Humidity, Mean Humidity, Min Humidity, Max Sea Level PressureIn, Mean Sea Level PressureIn, Min Sea Level PressureIn, Max VisibilityMiles, Mean VisibilityMiles, Min VisibilityMiles, Max Wind SpeedMPH, Mean Wind SpeedMPH, Max Gust SpeedMPH,PrecipitationIn, CloudCover, Events, WindDirDegrees
2013-6-1,72,60,48,59,54,44,97,80,59,29.79,29.66,29.60,10,10,2,20,11,26,0.13,6,Rain,277
2013-6-2,59,50,43,43,40,37,90,70,51,30.05,29.99,29.81,10,10,10,20,13,28,0.00,5,,321
2013-6-3,69,55,42,50,43,39,92,60,37,30.10,30.05,30.02,10,10,10,12,4,18,0.00,1,,295
2013-6-4,57,54,51,52,49,41,100,87,55,30.20,30.15,30.08,10,8,4,10,7,,0.05,8,Rain,101
2013-6-5,55,52,50,54,49,48,96,91,82,30.16,30.05,29.97,10,7,3,18,9,26,0.18,8,Rain,96
2013-6-6,54,52,50,52,50,48,100,94,86,30.02,29.99,29.96,10,5,2,12,8,,0.01,8,Rain,87
2013-6-7,69,60,50,52,48,44,89,69,49,30.04,29.99,29.94,10,10,10,8,4,,0.00,7,,47
2013-6-8,66,60,53,54,51,46,100,79,50,30.02,29.98,29.93,10,9,2,15,5,22,0.42,5,Rain,107
2013-6-9,72,62,53,63,56,48,100,83,63,30.02,29.92,29.83,10,8,2,18,9,29,0.30,7,Rain,108
2013-6-10,77,66,57,63,60,55,97,79,59,29.86,29.83,29.81,10,7,1,9,5,17,0.00,3,,348
2013-6-11,77,66,57,63,61,57,100,79,62,29.90,29.87,29.84,10,9,5,9,4,,0.00,1,Rain,265
2013-6-12,73,66,61,62,60,56,97,82,68,29.91,29.84,29.76,10,9,6,15,6,,0.07,5,Rain,77
2013-6-13,75,66,57,59,53,50,93,64,40,30.11,30.00,29.84,10,10,10,14,8,22,0.00,1,,18
2013-6-14,75,64,53,57,51,46,89,65,44,30.15,30.08,29.98,10,10,10,10,6,,0.00,1,Rain,122
2013-6-15,75,68,60,67,62,57,100,89,73,30.03,29.91,29.81,10,8,0,26,8,41,0.55,6,Fog-Rain,219
2013-6-16,80,67,55,60,55,49,100,74,35,29.90,29.88,29.86,10,7,0,17,4,20,0.00,0,Fog,276
2013-6-17,79,65,53,59,56,51,93,70,47,30.01,29.91,29.86,10,10,10,13,5,21,0.00,1,Rain,8
2013-6-18,71,62,53,56,49,41,94,68,42,30.13,30.08,30.02,10,10,10,12,7,20,0.00,3,,98
2013-6-19,75,62,50,57,51,45,83,65,48,30.16,30.10,30.05,10,10,10,8,4,,0.00,2,,166
2013-6-20,82,70,57,60,57,54,89,63,42,30.10,30.06,30.01,10,10,10,16,6,25,0.00,2,,180
2013-6-21,75,68,62,65,63,60,100,86,68,30.07,29.95,29.81,10,8,1,30,12,44,1.09,7,Rain,296
2013-6-22,78,70,62,68,65,61,100,90,69,30.09,29.98,29.91,10,7,2,20,8,30,0.06,6,Rain,128
2013-6-23,82,73,64,70,65,61,94,78,54,29.94,29.88,29.82,10,9,4,20,12,30,0.01,2,Rain,203
2013-6-24,79,70,62,70,66,63,100,86,71,29.96,29.91,29.84,10,9,1,15,5,22,0.02,3,Rain,220
2013-6-25,80,72,64,68,66,63,100,80,66,29.90,29.84,29.78,10,10,7,9,5,,0.00,4,,184
2013-6-26,84,75,68,72,70,66,100,90,67,29.79,29.75,29.69,10,7,0,15,6,24,0.00,5,Fog-Rain,170
2013-6-27,84,74,66,70,64,57,100,80,44,29.82,29.77,29.70,10,7,0,18,6,26,0.00,3,Fog-Rain,294
2013-6-28,73,66,61,64,61,56,100,84,70,29.73,29.69,29.67,10,9,2,22,10,28,0.16,6,Rain,327
2013-6-29,73,66,60,60,57,49,94,81,54,29.94,29.79,29.71,10,9,4,15,9,23,0.10,6,Rain,19
2013-6-30,78,66,54,50,46,43,72,49,31,30.09,30.03,29.94,10,10,10,13,9,18,0.00,1,,25